Location: Robledo de Chavela
(40.5014°N, 4.2377°W)
Time: 06:41:59
(UTC+00:00)

COSMOS 2455 - Pass Details

Date: 18 April 2024
Orbit: 898 x 911 km, 67.1° (Epoch: 22 May)

Event Time Altitude Azimuth Distance (km) Brightness Sun altitude
Rises 20:17:17 0° 339° (NNW) 3,547 6.8 -14.5°
Reaches altitude 10° 20:20:20 10° 353° (N) 2,603 5.7 -15.0°
Maximum altitude 20:25:08 24° 46° (NE) 1,802 4.3 -15.8°
Enters shadow 20:28:01 17° 84° (E) 2,128 4.3 -16.2°
